THOR AGENA B R/B, 2174

Orbit data source: Space-Track

THOR AGENA B R/B, 2174 is space debris in SSO originally from a launch on Sun, 15 May 1966 UTC launched from the Air Force Western Test Range (AFWTR). Debris objects in space refer to the collection of defunct objects orbiting the Earth. Examples of debris include non-operational satellites, rocket bodies, and fragments generated from explosions, collisions, or faulty payload assembly.

Loading next visibility...
Identifier
2174, 1966-040B
Orbit
SSO
Last TLE update
13 hours ago
Origin
Manufacturer
LMSC
Mission
Spacecraft
Bus & Motor
AGENA B, Unknown motor
Mass
600 kg wet, 600 kg dry
Launch date (UTC)
1966-05-15 (59 years ago)
Launch vehicle
Unknown
Launch site
Air Force Western Test Range (AFWTR)
Object type
Payload
Rocket body
Debris
Shape & HBR
Cyl + 1 Nozzle, 3.1 m
Radar Cross Section
8.306 m², Large (>1 m²)

Expand to show TLE details & history

TLE from 13 hours ago
0 THOR AGENA B R/B
1 02174U 66040B   25199.43084324 -.00000007  00000-0  74635-4 0  9991
2 02174 100.3150 117.3918 0056792 112.7326   1.0370 13.36273584884640
Epoch: 2025-07-18T10:20Z
TLE epoch observation values (Epoch: 2025-07-18T10:20:24.855Z)
Latitude
64.28625°
Longitude
-132.10815°
Altitude
1,091.564 km
Speed
7.333 km/s
True Right ascension
21h 17m 54s
True Declination
64° 09' 27"
Sunlit
Object was in daylight at epoch
Visualization orbit readout
Latitude
68.84624°
Longitude
-125.76537°
Altitude
1,092.444 km
Speed
7.333 km/s
Apparent Right ascension
22h 59m 34s
Apparent Declination
21° 17' 43"
Sunlit
Object is in daylight
Visualization observer readout
Local Sidereal Time
11:41:07
Azimuth
10.97° NNE
Elevation
-28.026°
Doppler factor
1
Orbital elements
Apogee altitude
1,163.131 km
Perigee altitude
1,077.958 km
Semi-major axis
7,498.682 km
Eccentricity
0.00568
Inclination
100.315°
RAAN
117.3918°
Arg. of periapsis
112.7326°
True anomaly
1.04886°
Mean anomaly
1.037°
Eccentric anomaly
1.04292°
Mean motion
3.34246 °/min
Orbital period
107.71 mins
BSTAR
0.000074635
Loading maneuver chart data...
Loading SW <> Apogee altitude chart data...
Loading historical data...
Loading historical data...
Loading historical data...
Loading historical data...
Loading historical data...
Loading historical data...
Loading historical data...
|